Weather History for Rabat-Sale, Morocco

Change the Weather History Date:

Thursday, February 13, 2014

  Actual Average Record
Temperature  
Mean Temperature 58 °F -  
Max Temperature 68 °F 64 °F 75 °F (2002)
Min Temperature 49 °F 46 °F 32 °F (2012)
Degree Days  
Heating Degree Days 6    
Growing Degree Days 8 (Base 50)    
Moisture  
Dew Point 54 °F    
Average Humidity 84    
Maximum Humidity 100    
Minimum Humidity 54    
Precipitation  
Precipitation 0.00 in 0.09 in - ()
Sea Level Pressure  
Sea Level Pressure 30.26 in    
Wind  
Wind Speed 3 mph ()    
Max Wind Speed 9 mph    
Max Gust Speed -    
Visibility 3.8 miles    
Events      
Averages and records for this station are not official NWS values.
T = Trace of Precipitation, MM = Missing Value Source: Averaged Metar Reports

Daily Weather History Graph

Daily Weather History Graph

Search for Another Location

Airport:

Trip Planner

Search our weather history database for the weather conditions in past years. The results will help you decide how hot, cold, wet, or windy it might be!

Date:

Astronomy

Feb. 13, 2014 Rise Set
Actual Time 7:13 AM WET 6:08 PM WET
Civil Twilight 6:48 AM WET 6:34 PM WET
Nautical Twilight 6:18 AM WET 7:04 PM WET
Astronomical Twilight 5:49 AM WET 7:33 PM WET
Moon 5:04 PM WET (2/13) 5:58 AM WET (2/13)
Length of Visible Light 11h 46m
Length of Day
10h 54m
Waxing Gibbous, 98% of the Moon is Illuminated
Feb 13
Waxing Gibbous
Feb 14
Full
Feb 22
Last Quarter
Mar 1
New
Mar 8
First Quarter

Hourly Weather History & Observations

Time (WET) Temp. Dew Point Humidity Pressure Visibility Wind Dir Wind Speed Gust Speed Precip Events Conditions
12:00 AM 54 °F 52 °F 90% 30.33 in 3 mi SSE 3.5 mph - -   Clear
12:00 AM 53.6 °F 51.8 °F 94% 30.30 in 3.1 mi SSE 3.5 mph - N/A   Unknown
1:00 AM 53.6 °F 51.8 °F 94% 30.30 in 3.1 mi NNW 2.3 mph - N/A   Unknown
1:30 AM 53.6 °F 51.8 °F 94% 30.30 in 3.1 mi Calm Calm - N/A   Unknown
2:00 AM 53.6 °F 51.8 °F 94% 30.30 in 3.1 mi Variable 2.3 mph - N/A   Unknown
2:30 AM 55.4 °F 53.6 °F 94% 30.30 in 3.1 mi SSE 3.5 mph - N/A   Unknown
3:00 AM 55 °F 54 °F 94% 30.31 in 3 mi SSE 2.3 mph - -   Clear
3:00 AM 55.4 °F 53.6 °F 94% 30.30 in 3.1 mi SSE 3.5 mph - N/A   Unknown
3:30 AM 55.4 °F 53.6 °F 94% 30.27 in 3.1 mi SSE 3.5 mph - N/A   Unknown
4:00 AM 55.4 °F 55.4 °F 100% 30.27 in 3.1 mi SSE 3.5 mph - N/A   Unknown
4:30 AM 55.4 °F 55.4 °F 100% 30.27 in 3.1 mi Variable 2.3 mph - N/A   Mostly Cloudy
5:00 AM 55.4 °F 53.6 °F 94% 30.27 in 3.1 mi SE 3.5 mph - N/A   Mostly Cloudy
5:30 AM 53.6 °F 51.8 °F 94% 30.27 in 3.1 mi SE 3.5 mph - N/A   Mostly Cloudy
6:00 AM 53 °F 51 °F 91% 30.29 in 3 mi SSE 3.5 mph - -   Mostly Cloudy
6:00 AM 53.6 °F 51.8 °F 94% 30.27 in 3.1 mi SSE 3.5 mph - N/A   Mostly Cloudy
6:30 AM 51.8 °F 50.0 °F 94% 30.27 in 3.1 mi Calm Calm - N/A   Scattered Clouds
7:00 AM 51.8 °F 50.0 °F 94% 30.30 in 3.1 mi SE 4.6 mph - N/A   Scattered Clouds
7:30 AM 51.8 °F 50.0 °F 94% 30.30 in 6.2 mi SE 4.6 mph - N/A   Scattered Clouds
8:00 AM 51.8 °F 50.0 °F 94% 30.30 in 6.2 mi SE 3.5 mph - N/A   Scattered Clouds
8:30 AM 53.6 °F 51.8 °F 94% 30.30 in - SSE 3.5 mph - N/A   Clear
9:00 AM 56 °F 54 °F 90% 30.32 in 6 mi SSE 4.6 mph - -   Clear
9:00 AM 57.2 °F 53.6 °F 88% 30.30 in - SSE 4.6 mph - N/A   Clear
9:30 AM 59.0 °F 55.4 °F 88% 30.30 in - SSE 4.6 mph - N/A   Clear
10:00 AM 62.6 °F 55.4 °F 77% 30.30 in - Variable 2.3 mph - N/A   Clear
10:30 AM 64.4 °F 53.6 °F 68% 30.30 in - Variable 2.3 mph - N/A   Clear
11:00 AM 64.4 °F 53.6 °F 68% 30.33 in - Variable 1.2 mph - N/A   Clear
11:30 AM 66.2 °F 53.6 °F 64% 30.30 in - Variable 2.3 mph - N/A   Clear
12:00 PM 67 °F 54 °F 54% 30.30 in 6 mi North 2.3 mph - -   Clear
12:00 PM 66.2 °F 53.6 °F 64% 30.30 in - Variable 2.3 mph - N/A   Clear
12:30 PM 66.2 °F 55.4 °F 68% 30.27 in 3.7 mi NW 6.9 mph - N/A   Unknown
1:00 PM 66.2 °F 57.2 °F 73% 30.27 in 4.3 mi NW 6.9 mph - N/A   Unknown
1:30 PM 66.2 °F 55.4 °F 68% 30.24 in 5.0 mi NNW 4.6 mph - N/A   Unknown
2:00 PM 68.0 °F 57.2 °F 68% 30.24 in 5.0 mi NW 6.9 mph - N/A   Unknown
2:30 PM 66.2 °F 55.4 °F 68% 30.21 in 5.0 mi NNW 9.2 mph - N/A   Partly Cloudy
3:00 PM 66 °F 56 °F 61% 30.23 in 5 mi North 8.1 mph - -   Scattered Clouds
3:00 PM 66.2 °F 55.4 °F 68% 30.21 in 5.0 mi North 8.1 mph - N/A   Partly Cloudy
3:30 PM 66.2 °F 57.2 °F 73% 30.21 in 5.0 mi North 6.9 mph - N/A   Partly Cloudy
4:00 PM 66.2 °F 55.4 °F 68% 30.18 in 4.3 mi North 6.9 mph - N/A   Partly Cloudy
4:30 PM 64.4 °F 55.4 °F 73% 30.18 in 5.0 mi NNW 6.9 mph - N/A   Partly Cloudy
5:00 PM 64.4 °F 55.4 °F 73% 30.18 in 5.0 mi North 8.1 mph - N/A   Partly Cloudy
5:30 PM 62.6 °F 55.4 °F 77% 30.18 in 5.0 mi North 8.1 mph - N/A   Partly Cloudy
6:00 PM 61 °F 56 °F 77% 30.21 in 5 mi North 6.9 mph - -   Scattered Clouds
6:00 PM 60.8 °F 55.4 °F 82% 30.18 in 5.0 mi North 6.9 mph - N/A   Partly Cloudy
6:30 PM 60.8 °F 55.4 °F 82% 30.21 in 3.7 mi NNE 8.1 mph - N/A   Partly Cloudy
7:00 PM 59.0 °F 57.2 °F 94% 30.21 in 3.1 mi NNE 9.2 mph - N/A   Partly Cloudy
7:30 PM 57.2 °F 55.4 °F 94% 30.21 in 3.1 mi NNE 4.6 mph - N/A   Partly Cloudy
8:00 PM 57.2 °F 53.6 °F 88% 30.21 in 1.7 mi NE 2.3 mph - N/A   Unknown
8:30 PM 57.2 °F 53.6 °F 88% 30.21 in 3.1 mi East 2.3 mph - N/A   Partly Cloudy
8:35 PM 55.4 °F 53.6 °F 94% 30.21 in 2.5 mi East 2.3 mph - N/A   Partly Cloudy
9:00 PM 55 °F 53 °F 88% 30.23 in 2 mi East 2.3 mph - -   Mist
9:00 PM 55.4 °F 51.8 °F 88% 30.21 in 2.5 mi Variable 2.3 mph - N/A   Partly Cloudy
10:00 PM 55.4 °F 53.6 °F 94% 30.21 in 2.5 mi Variable 2.3 mph - N/A   Partly Cloudy
11:00 PM 53.6 °F 51.8 °F 94% 30.21 in 2.5 mi Variable 2.3 mph - N/A   Partly Cloudy
11:30 PM 53.6 °F 51.8 °F 94% 30.18 in 2.5 mi Variable 2.3 mph - N/A   Partly Cloudy